[[{"header":{"parameterUnit":"m.s-1","parameterCategory":1,"la1":30.2991,"la2":30.254,"lo1":-89.0895,"lo2":-89.0444,"dy":0.0017,"dx":0.0017,"nx":28,"ny":28,"refTime":"2025-04-21T03:00:00:Z","depth":0,"parameterNumber":2,"parameterNumberName":"U-component_of_WINDS"},"data":[0,0,0,0,0,0,0,0,0,0,0,0,0,0,0,0,0,0,0,0,0,0,0,0,0,0,0,0,0,0,0,0,0,0,0,0,0,0,0,0,0,0,0,0,0,0,0,0,0,0,0,0,0,0,0,0,0,0,-2.7236,-2.7238,0,-2.7347,-2.7348,-2.735,-2.7371,-2.737,-2.737,-2.7369,-2.7482,-2.7486,-2.7489,0,0,0,0,0,0,0,0,0,0,0,0,0,-2.7044,-2.7048,-2.7236,-2.7238,-2.7239,-2.7347,-2.7348,-2.735,-2.7371,-2.737,-2.7369,-2.7368,-2.7481,-2.7485,-2.749,0,0,0,0,0,0,0,0,0,0,0,0,0,-2.7139,-2.7049,-2.7236,-2.7263,-2.7266,-2.7347,-2.7348,-2.735,-2.7372,-2.737,-2.7369,-2.7368,-2.7479,-2.7485,-2.749,-2.7552,0,0,-2.7508,-2.751,0,0,0,0,0,0,0,0,-2.7133,-2.7146,-2.7257,-2.7261,-2.7265,-2.7344,-2.7322,-2.7418,-2.7372,-2.7332,-2.7369,-2.7367,-2.7437,-2.7446,-2.747,-2.7557,-2.7562,-2.7508,-2.7512,-2.7514,-2.7516,0,0,0,0,0,0,0,-2.7127,-2.7141,-2.728,-2.7259,-2.7264,-2.727,-2.7282,-2.7341,-2.739,-2.7335,-2.7337,-2.735,-2.7439,-2.7464,-2.7473,-2.7564,-2.7508,-2.7513,-2.7517,-2.7519,-2.7708,-2.7709,0,0,0,0,0,0,-2.7115,-2.7135,-2.7277,-2.7283,-2.7195,-2.7274,-2.7287,-2.732,-2.739,-2.7399,-2.7351,-2.735,-2.7455,-2.7466,-2.7477,-2.7553,-2.7514,-2.752,-2.7523,-2.7706,-2.7708,-2.771,0,0,0,0,0,0,-2.7111,-2.7128,-2.7272,-2.721,-2.7229,-2.7279,-2.7315,-2.7323,-2.7348,-2.7402,-2.7411,-2.7367,-2.7455,-2.7469,-2.7533,-2.7557,-2.7522,-2.7528,-2.7704,-2.7707,-2.7709,-2.7707,0,0,0,0,0,0,-2.7106,-2.7126,-2.715,-2.721,-2.7232,-2.7326,-2.7317,-2.7326,-2.7358,-2.7359,-2.742,-2.7428,-2.7455,-2.7525,-2.7539,-2.7565,-2.7532,-2.7702,-2.7705,-2.7708,-2.7705,-2.7708,-2.7712,0,0,0,0,0,-2.7099,-2.7144,-2.7151,-2.7168,-2.7262,-2.7328,-2.734,-2.7369,-2.736,-2.7384,-2.7419,-2.7426,-2.7553,-2.7531,-2.7547,-2.7575,-2.7701,-2.7705,-2.7708,-2.7703,-2.7708,-2.7712,0,0,0,0,0,0,-2.7085,-2.7153,-2.716,-2.7227,-2.7272,-2.7331,-2.7362,-2.7373,-2.7421,-2.742,-2.7454,-2.7468,-2.753,-2.756,-2.7534,-2.7639,-2.7626,-2.7633,-2.7617,-2.7622,-2.7625,-2.7616,-2.7537,0,0,0,0,0,-2.709,-2.7137,-2.7194,-2.7247,-2.7269,-2.7312,-2.7341,-2.736,-2.7408,-2.7426,-2.7466,-2.7511,-2.7561,-2.7594,-2.7643,-2.771,-2.7723,-2.7737,-2.7741,-2.7743,-2.7748,-2.7786,-2.7793,-2.7721,-2.7721,-2.7721,0,0,-2.71,-2.7143,-2.717,-2.7245,-2.7282,-2.733,-2.7328,-2.7379,-2.7415,-2.7434,-2.7497,-2.7528,-2.7581,-2.7647,-2.7678,-2.7674,-2.7772,-2.7748,-2.775,-2.7753,-2.7791,-2.7797,-2.7803,-2.7724,-2.7723,-2.7723,0,0,-2.7143,-2.718,-2.7229,-2.7266,-2.7321,-2.735,-2.7361,-2.742,-2.7441,-2.7505,-2.7521,-2.7565,-2.765,-2.7688,-2.7718,-2.7777,-2.7786,-2.7792,-2.781,-2.7847,-2.7852,-2.7858,-2.7878,-2.7885,-2.7797,-2.7797,-2.7798,0,-2.7148,-2.7221,-2.7252,-2.7303,-2.7336,-2.7356,-2.7406,-2.744,-2.7509,-2.7531,-2.7525,-2.7633,-2.7671,-2.7746,-2.776,-2.7785,-2.7799,-2.7784,-2.7849,-2.7855,-2.786,-2.788,-2.7888,-2.7798,-2.7798,-2.7798,-2.7798,0,-2.7225,-2.7276,-2.7308,-2.7374,-2.7411,-2.7461,-2.75,-2.7533,-2.755,-2.7579,-2.7644,-2.769,-2.7749,-2.7769,-2.7785,-2.7847,-2.7842,-2.7842,-2.783,-2.7866,-2.7886,-2.7894,-2.7798,-2.7798,-2.7798,-2.7798,0,0,-2.7261,-2.7344,-2.7356,-2.7386,-2.745,-2.7489,-2.7541,-2.7598,-2.7626,-2.7674,-2.7717,-2.779,-2.7791,-2.7825,-2.7846,-2.7879,-2.7922,-2.7875,-2.7877,-2.7881,-2.7993,-2.7991,-2.7999,-2.7929,-2.7931,-2.7932,-2.7988,0,-2.7311,-2.7402,-2.7432,-2.7509,-2.7556,-2.7577,-2.7622,-2.7666,-2.7695,-2.774,-2.7772,-2.7823,-2.782,-2.7841,-2.7874,-2.791,-2.7945,-2.7906,-2.797,-2.7972,-2.7954,-2.801,-2.8008,-2.8059,-2.7996,-2.7997,-2.7998,0,-2.7381,-2.7429,-2.751,-2.7568,-2.7589,-2.7629,-2.7684,-2.7727,-2.7778,-2.7797,-2.7836,-2.7854,-2.7909,-2.7895,-2.7971,-2.7945,-2.7973,-2.7994,-2.7997,-2.8003,-2.7986,-2.8016,-2.8075,-2.8083,-2.801,-2.8009,-2.8008,0,-2.7398,-2.7484,-2.7543,-2.7569,-2.7638,-2.7665,-2.7696,-2.7745,-2.7778,-2.7827,-2.7849,-2.7904,-2.7934,-2.7976,-2.8009,-2.7996,-2.8082,-2.8071,-2.8099,-2.8099,-2.8115,-2.8114,-2.8179,-2.8135,-2.8135,-2.8135,-2.8135,0,-2.745,-2.7499,-2.7552,-2.7588,-2.7643,-2.7678,-2.7732,-2.7764,-2.7808,-2.7851,-2.7873,-2.7913,-2.7955,-2.8001,-2.8028,-2.8087,-2.81,-2.8117,-2.8123,-2.8114,-2.8112,-2.8132,-2.8129,-2.8137,-2.8137,-2.8136,-2.8136,0,-2.7478,-2.7516,-2.7582,-2.7642,-2.7659,-2.7697,-2.7749,-2.7785,-2.7816,-2.787,-2.7885,-2.7934,-2.7989,-2.8027,-2.8097,-2.8115,-2.8179,-2.8185,-2.8162,-2.8164,-2.819,-2.8187,-2.827,-2.8282,-2.8231,-2.8232,-2.8232,0,-2.7508,-2.7546,-2.7611,-2.7641,-2.7671,-2.772,-2.7754,-2.7791,-2.7825,-2.7886,-2.7915,-2.7972,-2.8019,-2.8107,-2.8148,-2.8203,-2.821,-2.8236,-2.8218,-2.8208,-2.821,-2.8206,-2.821,-2.8237,-2.8238,-2.8238,-2.8238,0,-2.7558,-2.7575,-2.7622,-2.7677,-2.7717,-2.7762,-2.7807,-2.7831,-2.7875,-2.7913,-2.7969,-2.8006,-2.8079,-2.8135,-2.8194,-2.8225,-2.8239,-2.8244,-2.8253,-2.8244,-2.8228,-2.8236,-2.8168,-2.8241,-2.8241,-2.8241,-2.8241,-2.8241,-2.7587,-2.7622,-2.7673,-2.7726,-2.7763,-2.7805,-2.7842,-2.7878,-2.7926,-2.7988,-2.8007,-2.8065,-2.8116,-2.8197,-2.8229,-2.8276,-2.8274,-2.8288,-2.8291,-2.8293,-2.8293,-2.8222,-2.8287,-2.8287,-2.8287,-2.8287,-2.8287,0,-2.7637,-2.7671,-2.772,-2.7782,-2.7824,-2.7834,-2.7884,-2.7919,-2.797,-2.8016,-2.8062,-2.8128,-2.8183,-2.8229,-2.8286,-2.8314,-2.8322,-2.8328,-2.8326,-2.8333,-2.8292,-2.8278,-2.8321,-2.8321,-2.8321,-2.8321,-2.8321,-2.8321,-2.7668,-2.7727,-2.775,-2.7829,-2.7863,-2.792,-2.7948,-2.7987,-2.8024,-2.8096,-2.8142,-2.8172,-2.8218,-2.8279,-2.833,-2.8342,-2.8361,-2.8365,-2.8379,-2.834,-2.8336,-2.8332,-2.8319,-2.837,-2.837,-2.8416,-2.8416,-2.8417]},{"header":{"parameterUnit":"m.s-1","parameterCategory":1,"la1":30.2991,"la2":30.254,"lo1":-89.0895,"lo2":-89.0444,"dy":0.0017,"dx":0.0017,"nx":28,"ny":28,"refTime":"2025-04-21T03:00:00:Z","depth":0,"parameterNumber":3,"parameterNumberName":"V-component_of_WINDS"},"data":[0,0,0,0,0,0,0,0,0,0,0,0,0,0,0,0,0,0,0,0,0,0,0,0,0,0,0,0,0,0,0,0,0,0,0,0,0,0,0,0,0,0,0,0,0,0,0,0,0,0,0,0,0,0,0,0,0,0,4.6974,4.6973,0,4.6874,4.6873,4.6872,4.6826,4.6826,4.6827,4.6827,4.6714,4.6711,4.6708,0,0,0,0,0,0,0,0,0,0,0,0,0,4.7119,4.7117,4.6974,4.6973,4.6972,4.6874,4.6873,4.6871,4.6826,4.6826,4.6827,4.6827,4.6715,4.6711,4.6707,0,0,0,0,0,0,0,0,0,0,0,0,0,4.7041,4.7116,4.6974,4.6938,4.6933,4.6874,4.6873,4.6871,4.6826,4.6826,4.6827,4.6827,4.6716,4.6712,4.6707,4.6674,0,0,4.6693,4.669,0,0,0,0,0,0,0,0,4.7046,4.7036,4.6944,4.694,4.6935,4.6863,4.6882,4.6804,4.6826,4.6867,4.6827,4.6827,4.6763,4.6754,4.6735,4.6668,4.6663,4.6692,4.6689,4.6687,4.6686,0,0,0,0,0,0,0,4.7051,4.704,4.6934,4.6943,4.6937,4.6924,4.6913,4.6867,4.6814,4.6863,4.686,4.6849,4.676,4.6739,4.6732,4.6662,4.6692,4.6688,4.6685,4.6683,4.6567,4.6567,0,0,0,0,0,0,4.7064,4.7045,4.6937,4.6931,4.6992,4.6921,4.6909,4.6886,4.6815,4.6804,4.6849,4.6847,4.6747,4.6737,4.6727,4.6686,4.6687,4.6683,4.668,4.6567,4.6567,4.6566,0,0,0,0,0,0,4.7067,4.7055,4.6941,4.6987,4.6972,4.6919,4.6893,4.6884,4.6863,4.6804,4.6794,4.6838,4.6747,4.6734,4.6689,4.6681,4.6681,4.6676,4.6567,4.6567,4.6567,4.6602,0,0,0,0,0,0,4.7071,4.7056,4.7044,4.6987,4.6969,4.6906,4.6892,4.6882,4.6856,4.6853,4.6791,4.6781,4.6746,4.6696,4.6684,4.6675,4.6673,4.6568,4.6567,4.6567,4.6601,4.6602,4.6604,0,0,0,0,0,4.7077,4.7055,4.7044,4.7031,4.6954,4.6906,4.6895,4.6859,4.6856,4.6842,4.6806,4.6783,4.6685,4.6692,4.6678,4.6667,4.6568,4.6567,4.6567,4.66,4.6602,4.6604,0,0,0,0,0,0,4.7107,4.7046,4.7033,4.6993,4.6956,4.6899,4.688,4.6862,4.6822,4.682,4.6773,4.676,4.6719,4.6688,4.6698,4.6633,4.6624,4.6621,4.6654,4.6656,4.6657,4.6665,4.6669,0,0,0,0,0,4.711,4.7079,4.7027,4.6996,4.6978,4.6933,4.6911,4.6887,4.6845,4.6827,4.6787,4.6744,4.6704,4.6678,4.6638,4.6597,4.6583,4.6583,4.6584,4.6586,4.6583,4.6561,4.6561,4.6564,4.6564,4.6564,0,0,4.7113,4.7077,4.7059,4.7001,4.6969,4.6937,4.692,4.6885,4.686,4.6821,4.6777,4.6747,4.6696,4.6654,4.6633,4.6627,4.658,4.6585,4.6587,4.6583,4.6561,4.6561,4.656,4.6564,4.6564,4.6564,0,0,4.7104,4.7073,4.7046,4.7016,4.697,4.6941,4.6935,4.6882,4.6862,4.6818,4.679,4.6758,4.6689,4.6656,4.6629,4.6614,4.6591,4.6601,4.6608,4.6588,4.6588,4.6587,4.6583,4.6581,4.6599,4.6599,4.6599,0,4.7113,4.7066,4.7033,4.7002,4.6977,4.6946,4.6918,4.6889,4.6831,4.6814,4.6809,4.6726,4.6689,4.664,4.6637,4.6617,4.6608,4.6607,4.6591,4.659,4.6589,4.6584,4.6583,4.6601,4.6601,4.66,4.66,0,4.708,4.7048,4.7031,4.6981,4.6955,4.6925,4.6886,4.6864,4.6843,4.6815,4.6772,4.6728,4.668,4.6667,4.6644,4.6615,4.6614,4.6601,4.6591,4.6591,4.6586,4.6584,4.6603,4.6602,4.6602,4.6602,0,0,4.7082,4.702,4.7014,4.6993,4.6943,4.6916,4.6885,4.6843,4.6824,4.6786,4.6759,4.6705,4.6694,4.6665,4.6638,4.6621,4.6613,4.661,4.6608,4.6613,4.6581,4.6591,4.6589,4.66,4.6599,4.6599,4.6585,0,4.7066,4.7014,4.6986,4.6943,4.6914,4.6887,4.686,4.6825,4.6799,4.6768,4.6737,4.6701,4.6689,4.6672,4.6653,4.6618,4.6606,4.6619,4.6572,4.6571,4.6586,4.6586,4.6595,4.6585,4.6583,4.6582,4.6582,0,4.7039,4.7008,4.6964,4.6922,4.6908,4.6885,4.6846,4.6817,4.6778,4.676,4.6731,4.6706,4.6672,4.6667,4.6619,4.6629,4.6609,4.6589,4.6588,4.6581,4.6576,4.6579,4.658,4.6579,4.6578,4.6579,4.6579,0,4.7047,4.6993,4.6961,4.6943,4.6892,4.6877,4.6854,4.6816,4.6794,4.6759,4.6744,4.6704,4.6681,4.6651,4.6616,4.6615,4.6572,4.6563,4.6555,4.6556,4.6546,4.6547,4.6543,4.6534,4.6534,4.6534,4.6534,0,4.7031,4.7006,4.6965,4.6944,4.6916,4.6884,4.6856,4.683,4.6798,4.6771,4.6744,4.672,4.6676,4.6646,4.6618,4.6584,4.6573,4.6557,4.655,4.656,4.6562,4.6544,4.6544,4.6533,4.6533,4.6533,4.6533,0,4.7034,4.7005,4.6969,4.6926,4.6915,4.6895,4.6857,4.6837,4.6811,4.6779,4.6769,4.6728,4.6691,4.6655,4.6604,4.6586,4.6553,4.6543,4.6567,4.6563,4.6557,4.6559,4.6542,4.6539,4.6532,4.6532,4.6532,0,4.7025,4.7006,4.6963,4.6946,4.6926,4.6897,4.6877,4.6845,4.6824,4.6781,4.6765,4.6728,4.6697,4.664,4.6604,4.6566,4.6555,4.6552,4.6549,4.656,4.6556,4.6557,4.6556,4.6553,4.6553,4.6553,4.6553,0,4.7014,4.7002,4.6974,4.6943,4.692,4.6893,4.6864,4.685,4.6813,4.6791,4.6756,4.6732,4.6685,4.6648,4.6607,4.6581,4.6561,4.6556,4.6552,4.6561,4.6576,4.6569,4.6571,4.6555,4.6555,4.6555,4.6555,4.6555,4.701,4.6994,4.6963,4.6933,4.691,4.6885,4.6865,4.684,4.6811,4.6773,4.6756,4.6721,4.6685,4.6629,4.6605,4.6576,4.657,4.6564,4.6563,4.6562,4.6565,4.6582,4.6568,4.6568,4.6568,4.6568,4.6568,0,4.6998,4.6979,4.6953,4.6916,4.6894,4.6883,4.6851,4.6832,4.6804,4.6774,4.6746,4.6707,4.6673,4.6637,4.66,4.6585,4.6575,4.6576,4.6576,4.6571,4.6571,4.6579,4.6585,4.6585,4.6585,4.6585,4.6585,4.6585,4.6989,4.6961,4.6947,4.6907,4.6886,4.6856,4.6839,4.6816,4.6793,4.6753,4.6726,4.6704,4.6672,4.6634,4.6602,4.6592,4.658,4.6584,4.6572,4.6572,4.6571,4.6569,4.6576,4.6582,4.6582,4.6574,4.6574,4.6574]}]]